DW8618 Nerja ES current weather conditions

sailwx.info

Wind from 229

Air temperature 22.2° C
Dewpoint 19.0° C

Last reported at 2019-Sep-21 21:01 UTC.
Time now 2019-Sep-21 21:35 UTC

Location: N 36°46' W 003°52'.
View on Google Maps.

See reports from other nearby stations

  
Tides and Currents Weather Stations Pressure Air Temp Water Temp Dewpoint Dewpoint Depression Visibility Wind Speed Wind Dir Waves Ship Positions
date/time (UTC)wind fromknots sea level pressurealtimeterstation pressurevisibilityair tempwater tempwave heightnotes
2019-Sep-21 21:01 229 22.2
2019-Sep-21 20:46 231 22.2
2019-Sep-21 20:31 232 22.2
2019-Sep-21 20:15 232 22.2
2019-Sep-21 20:01 232 22.2
2019-Sep-21 19:45 223 22.8
2019-Sep-21 19:30 223 22.8
2019-Sep-21 19:16 224 22.8
2019-Sep-21 19:01 224 22.8
2019-Sep-21 18:45 224 22.8
2019-Sep-21 18:30 224 23.3
2019-Sep-21 18:16 224 23.3
2019-Sep-21 18:01 224 23.3
2019-Sep-21 17:46 214 23.3
2019-Sep-21 17:30 214 23.3
2019-Sep-21 17:15 231 23.3
2019-Sep-21 17:01 232 23.9
2019-Sep-21 16:45 232 23.3
2019-Sep-21 16:30 232 23.9
2019-Sep-21 16:16 229 23.9
2019-Sep-21 16:01 189 23.9
2019-Sep-21 15:46 189 24.4
2019-Sep-21 15:31 200 24.4
2019-Sep-21 15:15 189 2 gusting 5 24.4
2019-Sep-21 15:01 187 24.4
2019-Sep-21 14:45 200 24.4
2019-Sep-21 14:30 192 24.4
2019-Sep-21 14:16 203 24.4
2019-Sep-21 14:01 185 0 gusting 5 24.4
2019-Sep-21 13:45 201 24.4
2019-Sep-21 13:31 192 0 gusting 6 24.4
2019-Sep-21 13:15 183 24.4
2019-Sep-21 13:01 198 24.4
2019-Sep-21 12:45 208 24.4
2019-Sep-21 12:30 191 0 gusting 7 24.4
2019-Sep-21 12:15 182 24.4
2019-Sep-21 12:01 202 0 gusting 5 23.9
2019-Sep-21 11:45 189 1 gusting 4 23.9
2019-Sep-21 11:30 210 1 gusting 5 23.9
2019-Sep-21 11:15 179 23.9
2019-Sep-21 11:01 160 23.9
2019-Sep-21 10:45 157 23.9
2019-Sep-21 10:30 268 23.9
2019-Sep-21 10:15 207 23.9
2019-Sep-21 10:01 198 0 gusting 5 23.9
2019-Sep-21 09:45 193 23.9
2019-Sep-21 09:30 182 23.9
2019-Sep-21 09:15 158 23.9
2019-Sep-21 09:01 179 23.9
2019-Sep-21 08:45 157 23.9
2019-Sep-21 08:31 140 23.3
2019-Sep-21 08:15 360 22.8
2019-Sep-21 08:01 360 22.8
2019-Sep-21 07:45 360 22.8
2019-Sep-21 07:30 360 22.2
2019-Sep-21 07:16 360 22.2
2019-Sep-21 07:01 355 22.2
2019-Sep-21 06:45 355 22.2
2019-Sep-21 06:31 355 22.2
2019-Sep-21 06:15 360 21.7
2019-Sep-21 06:01 360 22.2
2019-Sep-21 05:46 360 22.2
2019-Sep-21 05:30 360 21.7
2019-Sep-21 05:15 360 21.7
2019-Sep-21 05:01 360 21.7
2019-Sep-21 04:45 005 21.7
2019-Sep-21 04:31 355 21.7
2019-Sep-21 04:15 326 21.7
2019-Sep-21 04:01 333 21.7
2019-Sep-21 03:45 325 21.7
2019-Sep-21 03:30 333 22.2
2019-Sep-21 03:16 326 22.2
2019-Sep-21 03:01 350 22.2
2019-Sep-21 02:45 350 22.2
2019-Sep-21 02:31 349 22.2
2019-Sep-21 02:15 348 22.2
2019-Sep-21 02:01 348 22.2
2019-Sep-21 01:45 340 22.2
2019-Sep-21 01:30 330 22.8
2019-Sep-21 01:16 268 22.8
2019-Sep-21 01:01 180 22.8
2019-Sep-21 00:45 178 22.8
2019-Sep-21 00:30 178 22.8
2019-Sep-21 00:15 178 23.3
2019-Sep-21 00:01 179 23.3
2019-Sep-20 23:45 157 23.3
2019-Sep-20 23:31 177 23.3
2019-Sep-20 23:15 151 23.3
2019-Sep-20 23:01 138 23.3
2019-Sep-20 22:45 134 23.3
2019-Sep-20 22:31 138 23.3
2019-Sep-20 22:15 125 23.3
2019-Sep-20 22:01 147 23.3
2019-Sep-20 21:45 124 23.3
2019-Sep-20 21:30 134 23.3
2019-Sep-20 21:15 193 23.3
2019-Sep-20 21:01 188 23.9
2019-Sep-20 20:45 168 23.9
2019-Sep-20 20:30 168 23.9
2019-Sep-20 20:15 195 23.9
2019-Sep-20 20:01 210 23.9
2019-Sep-20 19:46 206 23.9
2019-Sep-20 19:30 206 23.9
2019-Sep-20 19:15 191 23.9
2019-Sep-20 19:01 148 23.9
2019-Sep-20 18:46 139 23.9
2019-Sep-20 18:31 178 23.9
2019-Sep-20 18:15 198 0 gusting 6 23.9
2019-Sep-20 18:01 194 24.4
2019-Sep-20 17:45 150 24.4
2019-Sep-20 17:31 153 24.4
2019-Sep-20 17:15 223 24.4
2019-Sep-20 17:01 288 24.4
2019-Sep-20 16:45 288 24.4
2019-Sep-20 16:31 288 24.4
2019-Sep-20 16:15 211 24.4
2019-Sep-20 16:01 177 24.4
2019-Sep-20 15:45 197 24.4
2019-Sep-20 15:30 177 0 gusting 4 24.4
2019-Sep-20 15:15 186 24.4
2019-Sep-20 15:01 175 24.4
2019-Sep-20 14:45 109 24.4
2019-Sep-20 14:30 173 24.4
2019-Sep-20 14:16 185 1 gusting 6 24.4
2019-Sep-20 14:01 186 25.0
2019-Sep-20 13:45 179 2 gusting 8 25.0
2019-Sep-20 13:31 150 0 gusting 6 25.6
2019-Sep-20 13:15 188 0 gusting 7 25.0
2019-Sep-20 13:01 155 0 gusting 6 25.6
2019-Sep-20 12:45 111 1 gusting 7 25.6
2019-Sep-20 12:30 154 25.6
2019-Sep-20 12:16 142 1 gusting 7 25.0
2019-Sep-20 12:01 166 0 gusting 6 25.0
2019-Sep-20 11:46 129 25.0
2019-Sep-20 11:30 159 2 gusting 12 24.4
2019-Sep-20 11:15 175 1 gusting 7 24.4
2019-Sep-20 11:01 153 3 gusting 12 24.4
2019-Sep-20 10:46 134 1 gusting 10 24.4
2019-Sep-20 10:30 082 4 gusting 11 24.4
2019-Sep-20 10:15 152 0 gusting 8 24.4
2019-Sep-20 10:01 163 24.4
2019-Sep-20 09:45 114 2 gusting 9 23.9
2019-Sep-20 09:31 148 0 gusting 8 23.3
2019-Sep-20 09:15 175 1 gusting 6 23.3
2019-Sep-20 09:01 173 0 gusting 8 23.3
2019-Sep-20 08:45 135 23.3
2019-Sep-20 08:30 169 23.3
2019-Sep-20 08:16 159 23.3
2019-Sep-20 08:01 053 23.3
2019-Sep-20 07:46 053 23.3
2019-Sep-20 07:31 053 23.3
2019-Sep-20 07:15 053 23.3
2019-Sep-20 07:01 015 23.3
2019-Sep-20 06:45 009 22.8
2019-Sep-20 06:31 005 22.8
2019-Sep-20 06:15 005 22.2
2019-Sep-20 06:01 005 22.2
2019-Sep-20 05:46 323 22.2
2019-Sep-20 05:30 347 21.7
2019-Sep-20 05:16 355 22.2
2019-Sep-20 05:01 355 21.7
2019-Sep-20 04:45 348 21.7
2019-Sep-20 04:31 347 21.7
2019-Sep-20 04:15 327 21.7
2019-Sep-20 04:01 333 21.7
2019-Sep-20 03:45 345 21.7
2019-Sep-20 03:31 350 21.7
2019-Sep-20 03:15 325 22.2
2019-Sep-20 03:01 290 22.2
2019-Sep-20 02:45 202 23.3
2019-Sep-20 02:30 186 0 gusting 6 23.3
2019-Sep-20 02:15 152 23.3
2019-Sep-20 02:01 139 23.3
2019-Sep-20 01:46 146 0 gusting 6 23.3
2019-Sep-20 01:30 122 0 gusting 4 23.3
2019-Sep-20 01:15 135 22.8
2019-Sep-20 01:01 342 22.2
2019-Sep-20 00:45 360 22.2
2019-Sep-20 00:30 360 22.2
2019-Sep-20 00:16 360 22.2
2019-Sep-20 00:01 360 22.2
2019-Sep-19 23:46 360 22.2
2019-Sep-19 23:31 360 22.2
2019-Sep-19 23:15 355 22.2
2019-Sep-19 23:01 005 22.2
2019-Sep-19 22:45 315 22.2
2019-Sep-19 22:31 331 22.2
2019-Sep-19 22:15 346 22.2
2019-Sep-19 22:01 350 22.2
2019-Sep-19 21:45 336 22.2
2019-Sep-19 21:30 355 22.2
2019-Sep-19 21:15 355 22.2
2019-Sep-19 21:01 355 22.2